RS-40
1 38735U 12041C   15148.70694883  .00000040  00000-0  21992-3 0  9998
2 38735 082.4786 072.1267 0015574 220.8466 139.1466 12.42567617128493
PROITERES
1 38756U 12047B   15149.01168351  .00000484  00000-0  78442-4 0  9993
2 38756 098.2186 247.9718 0012306 006.1858 353.9463 14.75804360146173
BEESAT-3
1 39134U 13015E   15148.70485907  .00003922  00000-0  22447-3 0  9997
2 39134 064.8719 119.8402 0031886 254.9954 104.8146 15.11968288115758
BEESAT-2
1 39136U 13015G   15148.73944021  .00003683  00000-0  22018-3 0  9997
2 39136 064.8725 121.9733 0032525 253.8247 105.9798 15.10377263115720
ZACUBE-1
1 39417U 13066B   15148.18133859  .00000875  00000-0  11997-3 0  9997
2 39417 097.7316 211.4482 0060155 200.3886 159.4924 14.79656230 81674
TRITON-1
1 39427U 13066M   15147.74199076  .00000564  00000-0  10060-3 0  9997
2 39427 097.7169 199.6948 0114770 231.9381 127.1426 14.66600662 80861
DELFIN3XT
1 39428U 13066N   15148.61671704  .00001044  00000-0  18161-3 0  9992
2 39428 097.7171 198.8604 0123340 233.9131 125.0602 14.65308551 80878
GOMX-1
1 39430U 13066Q   15148.72077359  .00000509  00000-0  10386-3 0  9999
2 39430 097.7092 193.2363 0152355 250.9705 107.4933 14.58019182 80544
MO-76
1 39436U 13066W   15147.73683399  .00014555  00000-0  99566-3 0  9995
2 39436 097.7463 223.7798 0024188 170.4461 189.7231 15.05980671 82415
LO-74
1 39440U 13066AA  15148.38674182  .00000758  00000-0  11567-3 0  9997
2 39440 097.7261 207.1498 0081515 210.8930 148.7471 14.74476431 81415
PUCPSAT-1
1 39442U 13066AC  15148.99526664  .00001563  00000-0  17245-3 0  9991
2 39442 097.7406 219.4562 0033255 183.9657 176.1301 14.88508374 81010
SPROUT
1 39770U 14029E   15147.88410909  .00000199  00000-0  30466-4 0  9991
2 39770 097.8688 244.9802 0008408 266.8785 093.1467 14.83772318 54626
POPSAT-HIP1
1 40028U 14033U   15149.00911083  .00000940  00000-0  11122-3 0  9990
2 40028 097.9562 049.3178 0012777 243.3229 116.6653 14.86958249 50936
EO-80
1 40032U 14033Y   15147.65469764  .00001368  00000-0  16022-3 0  9997
2 40032 097.9526 047.6576 0010800 244.6070 115.3880 14.86649335 50736
VELOX-1
1 40057U 14034E   15148.94629935  .00001221  00000-0  18603-3 0  9991
2 40057 098.2153 226.7324 0009975 304.0503 055.9707 14.75775676 49042
DAURIA DX 1
1 40071U 14037C   15148.93174053  .00000536  00000-0  77751-4 0  9993
2 40071 098.3571 219.5519 0007438 307.3939 052.6561 14.80366262 47942
UKUBE-1
1 40074U 14037F   15148.92370483  .00001189  00000-0  15667-3 0  9992
2 40074 098.3589 220.2633 0003756 321.4917 038.5967 14.82133296 47980
HODOYOSHI-1
1 40299U 14070B   15148.98441038  .00002238  00000-0  10940-3 0  9994
2 40299 097.4558 230.7389 0012923 193.0188 270.5134 15.19211820 30907
CHUBUSAT-1
1 40300U 14070C   15148.97884792  .00002512  00000-0  12805-3 0  9991
2 40300 097.4529 230.0794 0022020 197.0573 262.8439 15.17480235 30865
QSAT-EOS
1 40301U 14070D   15148.94853191  .00005116  00000-0  26088-3 0  9999
2 40301 097.4489 229.4340 0032185 198.9715 278.0040 15.16737804 30820
TSUBAME
1 40302U 14070E   15148.95956073  .00003170  00000-0  18055-3 0  9997
2 40302 097.4466 228.4532 0042841 202.4493 277.3966 15.12770217 30765
FIREBIRD FU3
1 40377U 15003B   15147.53285988  .00005728  00000-0  29005-3 0  9997
2 40377 099.1193 177.1824 0157646 321.5478 037.4588 15.07311789 17447
FIREBIRD FU4
1 40378U 15003C   15147.53099074  .00005674  00000-0  28695-3 0  9991
2 40378 099.1181 177.1855 0157879 321.4634 037.5382 15.07331264 17443
GRIFEX
1 40379U 15003D   15147.62508392  .00004596  00000-0  23737-3 0  9994
2 40379 099.1183 177.2363 0158820 322.2294 036.7854 15.06680197 17456
LAMBDA-SAT
1 40458U 98067GB  15136.30676273  .20783109  12527-4  14817-2 0  9995
2 40458 051.6075 233.7697 0010355 318.5347 043.1720 16.39926603 21161
